Weather History for Houlton, ME

Change the Weather History Date:

Monday, November 12, 2012

  Actual Average Record
Temperature  
Mean Temperature 47 °F 34 °F  
Max Temperature 59 °F 42 °F 61 °F (1970)
Min Temperature 35 °F 26 °F 7 °F (1985)
Degree Days  
Heating Degree Days 18 31  
Month to date heating degree days 347 345  
Since 1 July heating degree days 1216 1481  
Cooling Degree Days 0 0  
Month to date cooling degree days 0 0  
Year to date cooling degree days 277 191  
Moisture  
Dew Point 43 °F    
Average Humidity 73    
Maximum Humidity 100    
Minimum Humidity 46    
Precipitation  
Precipitation 0.00 in 0.13 in 0.84 in (2002)
Month to date precipitation 1.45 1.63  
Year to date precipitation 42.27 34.31  
Sea Level Pressure  
Sea Level Pressure 30.32 in    
Wind  
Wind Speed 7 mph (SSW)    
Max Wind Speed 18 mph    
Max Gust Speed 28 mph    
Visibility 6 miles    
Events Fog    
T = Trace of Precipitation, MM = Missing Value Source: NWS Daily Summary

Daily Weather History Graph

Daily Weather History Graph

Search for Another Location

Airport:

Trip Planner

Search our weather history database for the weather conditions in past years. The results will help you decide how hot, cold, wet, or windy it might be!

Date:

Astronomy

Nov. 12, 2012 Rise Set
Actual Time 6:28 AM EST 4:01 PM EST
Civil Twilight 5:56 AM EST 4:34 PM EST
Nautical Twilight 5:19 AM EST 5:10 PM EST
Astronomical Twilight 4:44 AM EST 5:45 PM EST
Moon 4:46 AM EST (11/12) 3:06 PM EST (11/12)
Length of Visible Light 10h 38m
Length of Day
9h 33m
Waning Crescent, 2% of the Moon is Illuminated
Nov 12
Waning Crescent
Nov 13
New
Nov 20
First Quarter
Nov 28
Full
Dec 6
Last Quarter

Hourly Weather History & Observations

Time (EST) Temp. Windchill Dew Point Humidity Pressure Visibility Wind Dir Wind Speed Gust Speed Precip Events Conditions
12:53 AM 41.0 °F 37.1 °F 37.9 °F 89% 30.41 in 8.0 mi South 5.8 mph - N/A   Overcast
1:53 AM 42.1 °F 39.2 °F 39.0 °F 89% 30.42 in 8.0 mi South 4.6 mph - N/A   Overcast
2:46 AM 42.8 °F 40.1 °F 39.2 °F 87% 30.38 in 4.0 mi South 4.6 mph - N/A   Overcast
2:53 AM 42.1 °F 40.2 °F 39.9 °F 92% 30.40 in 4.0 mi SSW 3.5 mph - N/A   Overcast
3:16 AM 42.8 °F 41.1 °F 39.2 °F 87% 30.39 in 2.5 mi South 3.5 mph - N/A   Overcast
3:27 AM 42.8 °F 41.1 °F 39.2 °F 87% 30.38 in 1.2 mi SSW 3.5 mph - N/A   Overcast
3:53 AM 43.0 °F 38.8 °F 41.0 °F 93% 30.40 in 1.0 mi South 6.9 mph - N/A   Overcast
4:53 AM 43.0 °F 39.5 °F 42.1 °F 97% 30.40 in 1.0 mi South 5.8 mph - N/A   Overcast
5:02 AM 42.8 °F 40.1 °F 42.8 °F 100% 30.38 in 0.8 mi South 4.6 mph - N/A   Overcast
5:40 AM 42.8 °F 41.1 °F 42.8 °F 100% 30.37 in 0.5 mi South 3.5 mph - N/A Fog Fog
5:53 AM 43.0 °F - 42.1 °F 97% 30.40 in 0.5 mi Calm Calm - N/A Fog Fog
6:53 AM 43.0 °F 40.3 °F 42.1 °F 97% 30.40 in 0.2 mi South 4.6 mph - N/A Fog Fog
7:53 AM 44.1 °F 41.5 °F 42.1 °F 93% 30.39 in 0.2 mi South 4.6 mph - N/A Fog Fog
8:38 AM 44.6 °F 42.2 °F 42.8 °F 93% 30.36 in 1.2 mi SSW 4.6 mph - N/A   Overcast
8:45 AM 44.6 °F 41.4 °F 42.8 °F 93% 30.36 in 1.8 mi SSW 5.8 mph - N/A   Overcast
8:53 AM 45.0 °F 42.6 °F 44.1 °F 97% 30.38 in 2.5 mi SSW 4.6 mph - N/A   Overcast
9:09 AM 44.6 °F 41.4 °F 44.6 °F 100% 30.35 in 3.0 mi SSW 5.8 mph - N/A   Overcast
9:18 AM 44.6 °F 40.2 °F 44.6 °F 100% 30.35 in 4.0 mi SSW 8.1 mph 16.1 mph N/A   Overcast
9:50 AM 46.4 °F 42.4 °F 44.6 °F 93% 30.34 in 5.0 mi South 8.1 mph 16.1 mph N/A   Overcast
9:53 AM 46.0 °F 41.4 °F 44.1 °F 93% 30.36 in 5.0 mi South 9.2 mph 16.1 mph N/A   Overcast
10:53 AM 50.0 °F - 44.1 °F 80% 30.34 in 7.0 mi SSW 8.1 mph - N/A   Scattered Clouds
11:53 AM 53.1 °F - 44.1 °F 71% 30.31 in 9.0 mi SSW 10.4 mph 18.4 mph N/A   Clear
12:53 PM 57.9 °F - 44.1 °F 60% 30.30 in 10.0 mi South 11.5 mph 19.6 mph N/A   Clear
1:53 PM 57.9 °F - 42.1 °F 56% 30.28 in 10.0 mi SSW 6.9 mph - N/A   Clear
2:53 PM 57.0 °F - 43.0 °F 59% 30.27 in 10.0 mi SW 5.8 mph - N/A   Clear
3:53 PM 54.0 °F - 43.0 °F 66% 30.27 in 10.0 mi SW 4.6 mph - N/A   Clear
4:53 PM 46.0 °F 43.1 °F 41.0 °F 83% 30.28 in 10.0 mi SSW 5.8 mph - N/A   Clear
5:53 PM 54.0 °F - 34.0 °F 47% 30.26 in 10.0 mi South 9.2 mph - N/A   Clear
6:53 PM 53.1 °F - 35.1 °F 50% 30.27 in 10.0 mi South 10.4 mph 17.3 mph N/A   Clear
7:53 PM 52.0 °F - 41.0 °F 66% 30.26 in 10.0 mi South 6.9 mph - N/A   Clear
8:53 PM 52.0 °F - 46.0 °F 80% 30.24 in 10.0 mi South 9.2 mph - N/A   Mostly Cloudy
9:29 PM 53.6 °F - 48.2 °F 82% 30.21 in 10.0 mi South 8.1 mph 20.7 mph N/A   Overcast
9:53 PM 54.0 °F - 48.9 °F 83% 30.21 in 10.0 mi South 10.4 mph 19.6 mph N/A   Overcast
10:53 PM 55.9 °F - 50.0 °F 80% 30.20 in 10.0 mi South 16.1 mph 23.0 mph N/A   Overcast
11:35 PM 57.2 °F - 51.8 °F 82% 30.18 in 10.0 mi SSW 12.7 mph 25.3 mph N/A   Overcast
11:53 PM 57.0 °F - 51.1 °F 81% 30.19 in 10.0 mi South 11.5 mph 25.3 mph N/A   Overcast